Regional Weather Roundup
Issued by NWS Newport/Morehead, NC

Current Version | Previous Version | Graphics & Text | Print | Product List | Glossary Off
Versions: 1 2 3 4 5 6 7 8 9 10 11 12 13 14 15 16 17 18 19 20 21 22 23 24 25 26 27 28 29 30 31 32 33 34 35 36 37 38 39 40 41 42 43 44 45 46 47 48 49 50

252
ASUS42 KMHX 200624
RWRMHX
WEATHER ROUNDUP FOR EASTERN NORTH CAROLINA
NATIONAL WEATHER SERVICE NEWPORT/MOREHEAD CITY NC
100 AM EST FRI JAN 20 2017

NOTE: "FAIR" INDICATES FEW OR NO CLOUDS BELOW 12,000 FEET
WITH NO SIGNIFICANT WEATHER AND/OR OBSTRUCTIONS TO VISIBILITY

NCZ015>017-031-032-045>047-102-103-200700-
NORTH COAST

CITY           SKY/WX    TMP DP  RH WIND       PRES   REMARKS
EDENTON        MOCLDY    45  42  89 CALM      30.04R
ELIZABETH CITY CLOUDY    41  40  96 CALM      30.03S
KITTY HAWK     NOT AVBL
MANTEO         PTCLDY    40  40 100 CALM      30.04R FOG

$$

NCZ045>047-081-094-103-104-200700-
CENTRAL COAST

CITY           SKY/WX    TMP DP  RH WIND       PRES   REMARKS
FRISCO         PTCLDY    43  39  86 E3        30.02R

$$

NCZ095-097-098-100-101-200700-
SOUTHERN COAST

CITY           SKY/WX    TMP DP  RH WIND       PRES   REMARKS
BEAUFORT       PTCLDY    44  43  96 NE3       30.00F
CEDAR ISLAND   NOT AVBL
JACKSONVILLE   PTCLDY    44  44 100 CALM      29.99F
PINEY ISLAND   CLOUDY   N/A N/A N/A E5        30.01F
WILMINGTON     PTCLDY    43  43 100 NE3       29.98F


$$

NCZ011>013-027>030-043-044-078>080-089-090>093-098-200700-
COASTAL PLAIN

CITY           SKY/WX    TMP DP  RH WIND       PRES   REMARKS
AHOSKIE          N/A     39  38  97 CALM      30.02S
CLINTON        CLOUDY    45  45  98 CALM      29.98F
ELIZABETHTOWN  CLOUDY    45  44  95 CALM      29.98F
GOLDSBORO      PTCLDY    43  43 100 E5        29.98F
GREENVILLE     PTCLDY    43  43 100 CALM      30.03S
HAVELOCK       CLOUDY    43  40  89 CALM      30.02S
KENANSVILLE    PTCLDY    39  39 100 CALM      29.99F FOG
KINSTON        PTCLDY    43  42  95 CALM      30.01F
NEW BERN       CLOUDY    40  39  97 CALM      30.02S
RICHLANDS      PTCLDY    40  40 100 CALM      30.00F
ROCKY MOUNT    PTCLDY    41  41 100 CALM      29.99F
WASHINGTON     CLOUDY    42  41  97 E3          N/A  FOG
WHITEVILLE     PTCLDY    47  45  92 CALM      29.98S

$$

AMZ130-135-150-152-154-156-158-170-250-252-270-ANZ085-086-088-633-658-670-200700-
MARINE OBSERVATIONS

STATION/POSITION TIME  TEMP    WIND        PRES    WAVE   SWELL
                       AIR SEA DIR/SP/G            HT/PER HT/PER
                 (UTC) (F)     (DEG/KT/KT) (MB)    (FT/S) (FT/S)
CHESAPEAKE LIGHT NOT AVBL
64 E VA BEACH    0550   50 56   60/  8/ 10 1016.2    6/11   5/11
DUCK             0600   45 45  130/  3/  3 1016.4
2 E DUCK         0600      45                N/A     4/11   3/11
OREGON INLET     0600           30/  2/  2 1016.8
13E OREGON INLT  NOT AVBL
HATTERAS CG      0600   47 55   60/  3/  4 1016.1
DIAMOND BUOY     0550   57 76   50/  4/  8 1016.3    4/11   3/11
CAPE LOOKOUT     0600   55      20/  1/  3 1015.3
BEAUFORT LAB     0600   48 51   20/  5/  5 1014.9
30 SE NEW RVR IN 0608   60 63  100/  6/  8 1015.5
30 SE NEW RVR IN 0543      63                N/A     3/ 9
27 SE WRIGHTSVLE 0608   63 71  120/  6/ 12 1014.6
5 SE WRIGHTSVLE  0608   56      60/  4/  6 1015.0
225 S CAPE HAT   0550   67 71   CALM  /  2 1015.2    5/ 9   5/ 9
41 SE CHARLESTON 0550   69 72   80/  6/  8 1013.5    3/ 7   2/ 7

$$




USA.gov is the U.S. government's official web portal to all federal, state and local government web resources and services.